Location: *
(33.8649°S, 62.1526°E)
Time: 03:45:24
(UTC+00:00)

Cosmos 1680 Rocket - Pass Details

Date: 17 January 2021
Orbit: 760 x 780 km, 74.1° (Epoch: 27 February)

Event Time Altitude Azimuth Distance (km) Brightness Sun altitude
Exits shadow 17:14:12 55° 36° (NE) 917 3.5 -22.5°
Maximum altitude 17:14:58 62° 76° (ENE) 860 3.4 -22.6°
Drops below altitude 10° 17:20:11 10° 156° (SSE) 2,326 6.3 -23.3°
Sets 17:22:36 0° 159° (SSE) 3,262 7.1 -23.7°
